Location: Unspecified
(35.7250°N, 0.0000°E)
Time: 19:21:45
(UTC+00:00)

Courier 1B Rocket - Pass Details

Date: 14 August 2020
Orbit: 920 x 1202 km, 28.2° (Epoch: 01 October)

Event Time Altitude Azimuth Distance (km) Brightness Sun altitude
Exits shadow 04:28:30 12° 254° (WSW) 2,490 6.5 -10.2°
Maximum altitude 04:33:52 39° 189° (S) 1,425 5.6 -9.2°
Drops below altitude 10° 04:40:04 10° 123° (ESE) 2,806 7.9 -8.1°
Sets 04:43:02 0° 116° (ESE) 3,805 8.7 -7.5°
